Location: Newark
(49.8969°N, 3.3422°E)
Time: 19:01:24
(UTC+00:00)

Tiros 1 - Pass Details

Date: 10 May 2021
Orbit: 630 x 664 km, 48.4° (Epoch: 12 June)

Event Time Altitude Azimuth Distance (km) Brightness Sun altitude
Exits shadow 03:06:59 10° 247° (WSW) 2,060 9.1 -8.9°
Maximum altitude 03:11:41 64° 167° (SSE) 726 7.3 -8.3°
Drops below altitude 10° 03:16:22 10° 86° (E) 2,049 10.6 -7.7°
Sets 03:18:42 0° 83° (E) 2,954 11.6 -7.4°
